Location: Newark
(25.4297°S, 49.2719°W)
Time: 10:41:54
(UTC+00:00)

Vanguard 1 Rocket - Pass Details

Date: 20 November 2019
Orbit: 650 x 4226 km, 34.3° (Epoch: 11 December)

Event Time Altitude Azimuth Distance (km) Brightness Sun altitude
Rises 02:26:47 0° 254° (WSW) 7,197 12.2 -44.1°
Reaches altitude 10° 02:34:37 10° 270° (W) 5,382 11.3 -44.5°
Enters shadow 02:39:28 15° 288° (WNW) 4,376 10.7 -44.6°
Maximum altitude 02:42:36 17° 304° (NW) 3,886 - -44.7°
Drops below altitude 10° 02:48:23 10° 340° (NNW) 3,673 - -44.8°
Sets 02:52:14 0° 1° (N) 4,145 - -44.9°
